Home > Weather > Burlington > Past weeks

Flag for Canada Weather for the Past 2 Weeks in Burlington, Ontario, Canada

Now
53 °F

Cool.


Feels Like: 49 °F
Forecast: 48 / 64 °F
Wind: 12 mph from Southeast

Location: Burlington Piers

Current Time: May 6, 2016 at 12:58:59 PM

Latest Report: May 6, 2016 at 12:00 PM


Visibility: N/A

Pressure: 29.90 "Hg

Humidity: 68%

Dew Point: 42 °F

Location of BurlingtonLocation

Historic Weather in Burlington — Graph

°F

Burlington Temperature Yesterday

Maximum temperature yesterday: 58 °F (at 9:00 PM)
Minimum temperature yesterday: 46 °F (at 2:00 PM)
Average temperature yesterday: 50 °F

High & Low Weather Summary for the Past Weeks

 TemperatureHumidityPressure
High67 °F (Apr 22, 2:00 PM)100% (May 1, 12:00 PM)30.22 "Hg (May 1, 12:00 PM)
Low36 °F (Apr 25, 4:00 PM)31% (Apr 23, 11:00 PM)29.69 "Hg (May 4, 4:00 PM)
Average45 °F73%29.98 "Hg
* Reported Apr 21 11:00 AM — May 6 11:00 AM, Burlington, Weather by CustomWeather, © 2016

Note: Actual official high and low records may vary slightly from our data, if they occured in-between our weather recording intervals... More about our weather records

Advertising

Burlington Weather History for the Previous 24 Hours

Scroll right to see more
 ConditionsComfort  
Time TempWeatherWind HumidityBarometerVisibility
11:00 AM
Fri, May 6
52 °FCool.10 mph69%29.89 "HgN/A
10:00 AM54 °FCool.7 mph58%29.88 "HgN/A
9:00 AM53 °FCool.2 mph65%29.88 "HgN/A
8:00 AM51 °FCool.2 mph65%29.87 "HgN/A
7:00 AM50 °FCool.2 mph72%29.86 "HgN/A
6:00 AM47 °FCool.5 mph80%29.85 "HgN/A
5:00 AM50 °FCool.3 mph68%29.84 "HgN/A
4:00 AM51 °FCool.8 mph65%29.83 "HgN/A
3:00 AM53 °FCool.8 mph57%29.83 "HgN/A
2:00 AM54 °FCool.7 mph52%29.82 "HgN/A
1:00 AM56 °FRefreshingly cool.20 mph44%29.81 "HgN/A
12:00 AM57 °FRefreshingly cool.14 mph52%29.80 "HgN/A
11:00 PM
Thu, May 5
57 °FCool.1 mph61%29.81 "HgN/A
10:00 PM56 °FCool.2 mph64%29.81 "HgN/A
9:00 PM58 °FCool.3 mph64%29.80 "HgN/A
8:00 PM57 °FCool.2 mph64%29.79 "HgN/A
7:00 PM54 °FCool.No wind72%29.79 "HgN/A
6:00 PM55 °FCool.1 mph71%29.80 "HgN/A
5:00 PM51 °FCool.1 mph80%29.81 "HgN/A
4:00 PM47 °FCool.5 mph81%29.82 "HgN/A
3:00 PM48 °FCool.6 mph89%29.83 "HgN/A
2:00 PM46 °FCool.8 mph87%29.83 "HgN/A
1:00 PM47 °FCool.6 mph86%29.84 "HgN/A
12:00 PM47 °FCool.7 mph89%29.85 "HgN/A
Weather by CustomWeather, © 2016

See weather overviewHow to use our weather pages